Theta_e
311 311 316 318 319 317 316 315 313 312 311 309 308 308 309 308 307 309 307 308 312 310 310 315 316 318 317 320 323 323 320 322 326 328 330 330 332 330 330 332 332 332 333 334 334
312 310 314 316 316 316 317 317 315 313 312 311 310 310 310 311 312 310 307 303 305 310 315 317 317 318 317 319 321 320 318 319 321 324 326 329 332 330 331 332 333 334 333 333 336
312 309 311 314 315 314 315 314 317 316 313 312 311 310 310 311 311 307 306 307 307 306 315 318 318 319 317 318 321 318 320 318 317 321 324 327 329 329 331 332 332 333 335 335 336
309 311 310 311 312 311 310 313 313 316 315 312 312 311 310 312 309 312 310 307 307 311 313 316 318 318 318 319 320 321 318 318 319 321 324 324 325 328 329 329 330 331 333 335 336
305 309 309 310 311 310 311 310 314 314 317 314 312 311 312 311 309 308 311 311 313 310 311 313 315 316 317 318 319 321 320 320 320 322 323 323 325 326 327 328 325 328 332 335 336
304 304 308 309 308 310 311 309 311 313 315 317 313 311 312 313 308 305 312 314 313 310 312 314 313 316 316 317 319 319 318 321 321 322 323 323 322 323 325 326 326 327 328 333 334
305 303 304 307 308 308 310 310 310 313 313 316 314 313 313 313 308 309 307 315 314 310 310 312 316 319 316 317 318 319 321 320 321 321 322 322 322 323 322 322 324 326 327 328 330
305 304 302 305 307 307 309 309 311 312 312 314 316 312 314 312 310 310 310 312 315 315 314 313 319 318 318 319 319 317 317 316 314 319 320 320 317 318 320 319 320 321 324 326 328
305 305 302 304 306 307 306 310 311 312 312 313 315 311 313 310 310 310 309 310 312 313 315 316 319 317 321 318 318 319 312 312 312 317 318 320 317 316 317 318 319 319 318 318 322
304 305 304 304 304 306 306 309 311 310 312 313 313 312 310 312 312 311 309 310 311 312 315 316 318 318 318 317 312 314 313 313 313 316 318 317 318 315 316 316 316 316 316 318 319
305 304 304 304 305 305 306 307 309 311 312 315 313 313 311 310 310 311 310 309 312 311 311 314 317 317 313 315 313 313 314 310 312 315 315 316 316 315 315 315 316 316 315 316 317
303 305 304 303 304 305 306 308 309 310 312 312 313 312 310 310 312 311 311 314 313 311 309 314 316 313 313 314 315 314 314 313 314 315 314 313 313 313 313 312 313 313 313 314 315
303 302 304 303 303 305 306 307 307 308 313 313 313 312 310 309 313 312 312 313 314 312 309 312 310 310 312 315 316 315 312 311 313 314 314 313 312 311 311 312 313 313 313 313 313
301 303 304 304 303 305 305 307 307 307 311 313 313 313 311 310 313 311 311 312 314 314 310 310 309 309 314 317 317 314 315 315 314 315 310 313 312 312 310 311 311 311 312 313 313
301 302 303 304 303 305 304 306 308 306 315 312 314 312 312 312 312 311 311 312 314 312 311 310 309 310 313 313 314 313 316 316 315 316 314 312 314 310 311 310 311 311 311 312 313
301 300 302 304 304 305 304 307 306 309 314 314 313 314 315 312 313 310 312 310 311 312 312 310 311 309 309 311 312 314 315 315 314 314 317 313 311 308 309 310 310 310 310 311 312
300 300 303 305 305 305 305 307 309 310 310 312 312 313 314 313 314 311 312 312 314 316 314 311 311 311 310 313 314 314 313 316 318 317 311 310 310 310 309 308 309 309 309 310 310
301 299 304 303 303 304 306 306 310 309 311 310 310 312 314 313 314 314 312 315 312 311 313 312 313 312 311 311 312 314 311 313 312 312 308 310 309 308 310 310 309 309 309 310 311
300 301 300 303 303 304 303 307 308 310 309 311 310 311 313 312 314 314 315 314 313 313 314 315 313 310 311 309 311 314 313 309 309 309 310 309 310 310 311 310 310 309 309 309 310
300 301 301 300 303 303 304 305 306 304 307 309 313 311 313 314 314 314 314 313 312 312 312 314 316 310 311 311 311 312 311 312 310 311 308 304 306 307 308 308 308 307 307 307 307
300 300 300 301 303 303 305 305 305 304 304 308 311 312 311 313 313 314 314 311 312 312 312 311 313 312 311 312 311 312 315 311 310 307 306 306 306 306 307 308 307 307 307 308 308
300 300 300 302 303 301 306 307 304 304 304 306 306 310 309 311 312 312 311 311 311 312 313 312 313 315 312 311 310 310 310 312 311 311 308 308 308 308 307 307 308 306 305 307 308
299 301 301 302 303 305 304 306 306 304 304 305 306 307 308 309 311 311 310 310 310 311 312 312 313 315 315 312 310 312 311 311 312 310 313 313 309 308 306 307 307 306 306 306 308
298 300 300 300 301 303 302 305 305 303 304 305 306 306 308 309 309 311 311 309 310 310 312 311 311 312 312 310 310 312 312 312 312 316 314 312 310 310 308 307 308 308 306 308 309
295 300 298 299 300 301 304 304 306 305 304 305 306 308 308 309 309 309 309 309 310 310 311 311 313 312 311 309 309 311 312 312 313 312 313 312 311 310 309 309 309 309 309 307 307
298 299 296 300 302 301 301 302 304 304 303 304 305 305 307 307 308 309 309 309 310 310 310 311 314 312 312 312 311 311 309 311 312 312 311 312 311 310 310 310 309 310 310 310 309
296 298 299 299 301 302 302 302 301 303 302 302 304 304 305 307 305 306 307 307 308 309 309 309 311 312 312 311 311 313 312 311 310 311 312 312 311 311 311 310 310 310 310 310 309
Wind_Speed
18 19 18 15 24 22 16 13 12 11 11 10 9 8 7 8 11 10 8 5 5 7 8 10 11 8 6 3 4 2 6 11 14 12 11 11 13 6 1 5 8 8 2 4 21
19 21 19 19 16 15 16 17 14 12 11 10 9 7 6 7 9 12 9 9 8 6 4 6 6 6 5 3 3 8 9 13 8 9 9 12 14 11 7 10 9 8 8 14 19
20 19 20 18 18 17 15 14 14 14 12 11 10 8 7 5 8 3 8 6 7 9 4 3 4 6 9 5 6 5 11 13 2 5 3 8 12 7 13 14 12 14 13 16 18
20 19 21 20 19 17 14 17 16 14 15 12 10 8 5 4 5 2 3 3 5 7 7 5 6 6 8 11 9 8 10 5 2 3 4 8 8 9 13 7 4 6 13 17 16
22 17 17 18 20 20 17 15 16 14 17 14 11 9 3 6 7 5 2 1 2 9 10 9 9 11 11 10 8 14 7 7 3 4 5 1 9 12 13 12 3 2 4 15 15
22 22 16 17 16 18 20 16 15 14 15 18 14 12 8 12 3 8 5 1 4 8 8 8 3 6 8 6 13 3 9 8 6 7 4 6 11 2 12 11 9 9 11 13 15
21 23 22 17 16 15 17 18 17 14 15 17 18 16 10 12 1 4 7 4 3 6 6 7 5 5 3 5 2 3 6 8 10 10 6 6 14 13 16 6 11 13 12 12 13
20 20 24 17 16 15 14 15 16 15 13 15 20 15 6 7 8 6 6 5 3 4 4 6 4 6 6 3 3 6 4 10 8 14 6 8 18 17 20 18 16 15 14 14 13
19 21 18 21 16 16 13 12 14 12 11 11 12 8 5 3 8 16 8 8 8 5 3 7 4 6 4 10 6 6 6 12 7 9 8 13 10 10 13 10 14 17 18 16 15
18 19 21 21 22 16 11 9 11 10 9 8 6 2 3 6 8 10 17 8 7 9 6 8 6 8 10 12 11 9 12 8 12 5 10 12 15 13 5 6 12 14 16 17 17
14 18 20 21 23 16 11 4 4 4 13 8 6 2 3 4 7 10 17 17 9 12 11 13 10 15 19 19 17 8 12 12 7 3 4 13 15 19 15 15 16 16 16 15 17
15 15 20 22 23 20 17 5 2 3 5 16 9 9 2 10 4 9 19 13 14 15 16 10 19 16 13 16 17 11 11 12 4 4 3 12 17 19 18 16 19 17 17 19 18
16 18 19 22 21 21 19 23 12 9 5 13 16 7 4 2 9 16 18 16 16 18 20 18 2 20 12 14 16 16 15 13 7 1 13 13 21 22 21 21 19 20 19 18 19
17 19 19 22 14 23 18 18 18 12 3 11 13 9 5 4 6 15 20 12 7 18 14 14 7 11 15 18 15 15 11 10 8 5 7 4 10 13 4 8 13 14 18 21 21
18 20 19 26 11 23 16 20 16 8 7 15 13 13 17 7 10 12 17 5 14 11 10 6 12 14 17 16 16 6 6 8 8 8 10 13 8 7 6 13 14 17 17 16 15
17 20 16 25 19 19 19 19 11 6 6 5 7 15 15 20 8 10 12 4 1 10 7 8 2 12 16 8 14 12 10 7 3 4 7 12 11 11 13 15 15 14 10 6 9
14 15 15 24 20 17 22 9 7 9 7 6 9 15 25 16 14 10 11 12 10 7 8 3 6 4 6 14 13 15 15 4 4 4 8 2 11 16 5 3 9 4 3 2 5
9 9 7 24 19 21 20 6 9 12 8 2 9 18 23 20 11 11 10 9 18 15 12 10 6 13 12 16 9 21 19 6 7 7 4 4 10 5 6 6 10 7 6 7 7
6 5 8 18 21 26 4 11 3 3 12 8 14 10 11 19 8 14 9 14 16 17 9 10 9 18 20 12 15 16 16 11 4 1 3 7 10 10 12 11 10 9 7 9 9
6 4 7 17 27 23 7 14 4 1 5 15 15 12 13 19 13 17 14 10 13 23 16 3 4 6 10 6 12 9 13 8 6 6 7 11 13 11 4 10 5 3 4 3 3
5 2 4 15 25 6 6 9 9 7 5 2 17 11 18 14 16 15 13 14 25 19 18 10 7 3 9 14 17 8 12 8 7 8 5 6 7 4 6 13 5 6 4 3 3
4 2 1 16 7 2 10 7 10 11 10 3 3 8 14 18 17 19 21 18 20 21 23 19 6 5 11 9 17 19 15 19 7 9 8 10 10 6 8 7 10 5 4 4 1
4 2 1 9 5 2 1 1 3 7 9 8 12 4 16 17 11 23 18 19 12 21 16 15 5 8 6 2 4 10 22 16 20 13 11 9 10 11 7 4 5 6 4 4 1
3 5 3 4 2 4 4 9 7 11 8 6 7 12 11 11 14 6 21 14 15 16 17 14 12 16 18 24 9 11 20 23 20 13 17 16 23 19 9 6 5 5 4 5 4
3 2 3 5 7 12 2 3 9 9 8 13 5 9 13 11 10 8 3 19 13 15 18 10 10 14 21 23 22 19 22 25 24 22 18 22 26 25 21 19 19 17 13 10 9
4 4 1 1 2 13 11 7 13 14 12 10 16 18 14 10 14 12 16 6 12 12 17 15 8 14 19 19 20 22 21 20 23 25 25 25 26 27 21 20 19 16 15 14 11
6 3 3 7 5 8 12 17 15 16 13 18 17 12 15 20 15 12 7 5 7 5 4 4 9 7 20 19 22 21 21 22 21 23 23 24 27 29 27 22 18 17 17 16 14
Wind_Direction
274 273 262 254 234 236 231 227 231 237 241 243 250 256 269 289 299 298 257 231 216 260 280 289 284 292 287 244 259 260 246 237 235 228 230 163 189 194 72 161 196 164 19 81 142
271 263 259 245 236 228 232 232 229 234 236 239 238 241 264 290 295 270 247 245 245 243 288 263 262 260 244 243 221 230 231 241 266 231 241 174 206 172 188 197 195 171 120 139 146
266 260 256 250 242 242 239 237 234 232 237 234 238 239 258 300 278 225 221 229 238 222 231 255 255 246 243 231 201 207 240 242 237 280 308 220 214 185 214 205 204 203 170 163 162
284 262 256 251 250 245 247 244 237 232 233 234 237 238 247 271 254 141 205 259 230 191 195 194 207 205 229 216 202 232 241 261 40 186 216 221 234 211 226 226 303 205 175 171 176
279 280 262 253 255 256 243 248 240 230 228 228 227 224 206 228 252 197 193 339 150 170 193 197 206 214 223 220 208 234 217 229 229 201 225 264 224 234 225 241 131 163 211 184 190
273 271 277 256 258 253 247 244 243 236 232 224 217 202 228 244 227 204 190 184 185 177 188 192 215 216 257 229 215 220 230 224 216 213 220 229 230 212 228 227 206 204 201 205 208
253 268 270 265 258 257 250 238 239 237 232 223 207 195 227 232 263 203 192 186 180 192 196 196 189 206 176 192 225 169 210 228 224 215 233 232 245 222 243 177 227 217 225 217 216
257 252 262 268 255 247 258 235 231 229 225 225 211 197 239 224 223 217 184 179 177 182 216 186 174 237 222 119 155 208 237 230 205 211 198 210 251 223 233 240 233 238 226 224 227
254 241 242 255 258 246 249 243 222 214 215 212 195 161 230 243 215 214 188 189 176 174 184 166 184 196 186 203 185 196 248 217 226 207 208 209 257 244 218 222 239 244 245 240 230
267 248 240 235 246 239 233 237 220 215 205 198 163 197 217 219 189 196 202 178 170 167 155 179 185 203 208 211 214 205 222 210 221 172 215 230 245 250 183 224 238 249 245 243 241
292 256 251 236 226 236 210 201 160 207 210 199 172 134 181 125 165 185 180 189 196 193 192 193 200 204 210 213 238 309 221 243 203 134 251 249 255 259 252 250 241 241 245 243 244
309 286 240 235 226 220 205 212 221 13 195 234 225 196 131 186 171 180 175 177 191 199 201 183 225 212 218 218 230 231 228 237 258 210 254 274 263 264 261 253 247 246 242 240 244
300 297 260 232 228 221 218 216 225 289 232 197 196 179 160 156 210 180 192 197 198 205 200 206 195 214 210 210 219 224 229 231 244 258 251 284 272 259 253 235 244 242 244 249 245
294 297 264 226 215 212 224 225 216 220 283 192 195 193 126 216 226 174 197 180 202 213 194 232 205 201 200 212 210 227 222 249 250 274 262 100 289 277 227 196 223 239 235 237 239
291 296 260 205 204 191 199 205 170 123 238 175 165 167 163 170 138 185 191 197 195 182 181 193 199 193 208 208 197 236 140 207 238 261 288 264 255 243 254 235 250 243 240 239 240
290 302 251 204 222 207 187 182 173 181 226 160 140 173 154 174 206 147 176 226 187 182 225 237 10 218 221 199 187 132 133 114 147 256 254 233 226 255 237 214 227 255 250 254 232
285 312 219 191 205 189 171 170 189 222 124 181 180 172 183 185 196 153 185 177 173 156 186 192 190 179 222 168 191 181 166 150 203 205 250 10 212 250 289 270 249 232 177 180 198
272 299 234 203 205 180 175 199 233 180 175 237 176 189 192 172 185 172 165 174 214 210 163 185 209 193 195 188 189 198 189 188 220 211 221 137 234 255 246 299 233 242 281 286 270
231 276 257 220 202 177 165 210 302 182 152 181 175 190 196 195 133 178 199 193 203 214 214 202 227 182 174 189 166 197 218 208 326 141 279 216 246 260 226 247 239 245 260 275 273
200 247 244 230 186 183 203 229 198 178 291 189 193 188 186 191 195 187 176 192 212 208 218 268 175 193 176 184 242 223 187 194 215 223 240 252 254 258 236 231 200 198 255 286 325
187 233 268 200 185 193 206 213 202 184 185 300 209 189 200 185 198 189 191 208 202 193 208 206 227 130 148 208 192 186 195 221 211 236 241 269 250 13 228 197 159 96 74 303 346
173 223 162 184 223 171 207 176 162 179 188 181 348 252 209 192 205 199 209 210 197 202 198 201 197 165 199 193 223 213 213 201 195 207 238 278 260 86 95 113 135 134 12 319 352
155 211 31 186 237 213 149 83 158 156 187 182 195 249 235 222 212 211 214 210 187 196 196 192 223 221 185 183 210 231 227 225 228 261 217 227 259 180 150 167 210 260 295 243 208
150 176 208 207 224 270 258 218 189 190 187 178 195 199 254 240 229 233 222 217 204 211 202 188 212 214 227 228 192 200 219 222 225 228 242 242 259 248 202 183 234 254 172 213 174
197 207 197 202 221 223 238 202 203 180 212 202 196 205 190 209 226 220 273 223 205 212 217 207 229 230 237 244 246 222 210 218 223 230 228 240 249 255 254 263 268 270 263 214 232
160 175 247 230 186 202 206 212 218 213 176 202 219 204 201 211 212 198 214 211 206 212 216 216 235 230 246 246 247 249 240 217 224 228 235 245 254 264 261 263 269 267 266 261 263
199 212 210 213 197 190 212 221 221 208 227 229 218 216 220 230 243 244 226 210 157 147 194 213 233 214 241 239 240 243 233 236 231 230 234 236 243 259 264 260 262 267 262 265 255